Wilton, MN

7:40 AM CDT on August 24, 2016 (GMT -0500)
Bemidji-Beltrami County

Weather History for KBJI - February, 2014

Change the Weather History Date:

Monday, February 10, 2014

  Actual Average Record
Temperature  
Mean Temperature -10 °F -  
Max Temperature 2 °F 18 °F 41 °F (1999)
Min Temperature -21 °F -3 °F -40 °F (1949)
Degree Days  
Heating Degree Days 74    
Moisture  
Dew Point -18 °F    
Average Humidity 73    
Maximum Humidity 82    
Minimum Humidity 58    
Precipitation  
Precipitation 0.00 in - - ()
Sea Level Pressure  
Sea Level Pressure 30.36 in    
Wind  
Wind Speed 5 mph (West)    
Max Wind Speed 9 mph    
Max Gust Speed -    
Visibility 10 miles    
Events      
Averages and records for this station are not official NWS values.
T = Trace of Precipitation, MM = Missing Value Source: NWS Daily Summary

Daily Weather History Graph

Daily Weather History Graph

Search for Another Location

Airport or City:

Trip Planner

Search our weather history database for the weather conditions in past years. The results will help you decide how hot, cold, wet, or windy it might be!

Date:

Astronomy

Feb. 10, 2014 Rise Set
Actual Time 7:33 AM CST 5:35 PM CST
Civil Twilight 7:01 AM CST 6:07 PM CST
Nautical Twilight 6:24 AM CST 6:43 PM CST
Astronomical Twilight 5:49 AM CST 7:19 PM CST
Moon 1:58 PM CST (2/10) 4:34 AM CST (2/10)
Length of Visible Light 11h 06m
Length of Day
10h 02m
Waxing Gibbous, 85% of the Moon is Illuminated
Feb 10
Waxing Gibbous
Feb 14
Full
Feb 22
Last Quarter
Mar 1
New
Mar 8
First Quarter

Hourly Weather History & Observations

Time (CST) Temp. Windchill Dew Point Humidity Pressure Visibility Wind Dir Wind Speed Gust Speed Precip Events Conditions
12:10 AM -15.9 °F -28.4 °F -20.6 °F 79% 30.32 in 10.0 mi WNW 4.6 mph - N/A   Clear
12:29 AM -16.6 °F -31.3 °F -21.3 °F 79% 30.32 in 10.0 mi WNW 5.8 mph - N/A   Clear
12:49 AM -16.8 °F -31.5 °F -21.3 °F 80% 30.32 in 10.0 mi West 5.8 mph - N/A   Clear
1:10 AM -17.1 °F -31.9 °F -22.0 °F 79% 30.32 in 10.0 mi West 5.8 mph - N/A   Clear
1:29 AM -16.2 °F -30.8 °F -20.6 °F 81% 30.32 in 10.0 mi West 5.8 mph - N/A   Clear
1:49 AM -16.2 °F -28.8 °F -20.9 °F 79% 30.32 in 10.0 mi West 4.6 mph - N/A   Clear
2:10 AM -16.8 °F -31.5 °F -21.5 °F 79% 30.32 in 10.0 mi West 5.8 mph - N/A   Clear
2:29 AM -18.4 °F -28.9 °F -22.9 °F 80% 30.32 in 10.0 mi West 3.5 mph - N/A   Clear
2:49 AM -16.6 °F -29.3 °F -21.3 °F 79% 30.32 in 10.0 mi West 4.6 mph - N/A   Clear
3:10 AM -17.5 °F -30.3 °F -22.2 °F 79% 30.33 in 10.0 mi West 4.6 mph - N/A   Clear
3:29 AM -19.7 °F -34.9 °F -24.5 °F 78% 30.33 in 10.0 mi West 5.8 mph - N/A   Clear
3:49 AM -18.6 °F -31.6 °F -23.1 °F 80% 30.33 in 10.0 mi West 4.6 mph - N/A   Clear
4:10 AM -19.5 °F - -24.3 °F 78% 30.33 in 10.0 mi Calm Calm - N/A   Clear
4:29 AM -20.0 °F -30.7 °F -24.7 °F 79% 30.33 in 10.0 mi West 3.5 mph - N/A   Clear
4:49 AM -18.6 °F -33.6 °F -23.1 °F 80% 30.34 in 10.0 mi West 5.8 mph - N/A   Clear
5:10 AM -19.7 °F -34.9 °F -24.7 °F 78% 30.35 in 10.0 mi West 5.8 mph - N/A   Clear
5:29 AM -18.2 °F -34.9 °F -22.9 °F 79% 30.35 in 10.0 mi West 6.9 mph - N/A   Clear
5:50 AM -18.8 °F -31.8 °F -23.8 °F 78% 30.34 in 10.0 mi West 4.6 mph - N/A   Clear
6:10 AM -21.5 °F -32.4 °F -26.9 °F 76% 30.34 in 10.0 mi WNW 3.5 mph - N/A   Clear
6:29 AM -20.7 °F -34.1 °F -25.6 °F 78% 30.34 in 10.0 mi West 4.6 mph - N/A   Clear
6:49 AM -18.9 °F -32.0 °F -23.8 °F 78% 30.34 in 10.0 mi WSW 4.6 mph - N/A   Clear
7:10 AM -18.9 °F -34.0 °F -24.0 °F 78% 30.35 in 10.0 mi WSW 5.8 mph - N/A   Clear
7:29 AM -20.2 °F -35.5 °F -25.6 °F 76% 30.36 in 10.0 mi West 5.8 mph - N/A   Clear
7:49 AM -19.3 °F -34.5 °F -24.3 °F 78% 30.37 in 10.0 mi West 5.8 mph - N/A   Clear
8:10 AM -19.3 °F -34.5 °F -24.7 °F 76% 30.37 in 10.0 mi West 5.8 mph - N/A   Clear
8:29 AM -19.8 °F -35.1 °F -25.1 °F 77% 30.38 in 10.0 mi WNW 5.8 mph - N/A   Clear
8:49 AM -19.1 °F -32.2 °F -24.0 °F 78% 30.38 in 10.0 mi WNW 4.6 mph - N/A   Clear
9:09 AM -16.1 °F -28.6 °F -20.9 °F 79% 30.38 in 10.0 mi WNW 4.6 mph - N/A   Clear
9:29 AM -14.3 °F -28.5 °F -19.1 °F 79% 30.39 in 10.0 mi WNW 5.8 mph - N/A   Clear
9:49 AM -13.0 °F -22.7 °F -18.0 °F 78% 30.39 in 10.0 mi WNW 3.5 mph - N/A   Clear
10:09 AM -10.8 °F -20.2 °F -15.9 °F 78% 30.39 in 10.0 mi WNW 3.5 mph - N/A   Clear
10:29 AM -8.9 °F -26.2 °F -14.6 °F 76% 30.39 in 10.0 mi NW 9.2 mph - N/A   Clear
10:50 AM -7.1 °F -23.9 °F -13.4 °F 74% 30.39 in 10.0 mi WNW 9.2 mph - N/A   Clear
11:10 AM -5.8 °F -22.4 °F -12.8 °F 72% 30.39 in 10.0 mi WNW 9.2 mph - N/A   Clear
11:29 AM -4.7 °F -18.6 °F -12.8 °F 68% 30.39 in 10.0 mi WNW 6.9 mph - N/A   Clear
11:49 AM -4.0 °F -17.8 °F -12.5 °F 67% 30.39 in 10.0 mi NW 6.9 mph - N/A   Clear
12:10 PM -2.9 °F -16.5 °F -11.9 °F 65% 30.39 in 10.0 mi WNW 6.9 mph - N/A   Clear
12:29 PM -2.0 °F -12.2 °F -11.4 °F 64% 30.38 in 10.0 mi NW 4.6 mph - N/A   Clear
12:49 PM -1.3 °F -14.5 °F -11.2 °F 63% 30.38 in 10.0 mi West 6.9 mph - N/A   Clear
1:10 PM -0.8 °F -12.5 °F -10.3 °F 64% 30.38 in 10.0 mi NW 5.8 mph - N/A   Clear
1:29 PM 0.1 °F -11.4 °F -10.7 °F 60% 30.37 in 10.0 mi West 5.8 mph - N/A   Clear
1:49 PM 0.5 °F -9.3 °F -10.5 °F 60% 30.36 in 10.0 mi West 4.6 mph - N/A   Clear
2:10 PM 1.2 °F -8.5 °F -10.3 °F 59% 30.36 in 10.0 mi WNW 4.6 mph - N/A   Clear
2:29 PM 1.4 °F -8.3 °F -10.3 °F 58% 30.36 in 10.0 mi WSW 4.6 mph - N/A   Clear
2:49 PM 1.8 °F -7.8 °F -9.8 °F 59% 30.36 in 10.0 mi WNW 4.6 mph - N/A   Clear
3:10 PM 2.1 °F -7.4 °F -9.4 °F 59% 30.36 in 10.0 mi West 4.6 mph - N/A   Clear
3:29 PM 2.1 °F -10.4 °F -9.0 °F 60% 30.36 in 10.0 mi West 6.9 mph - N/A   Clear
3:49 PM 2.1 °F -9.0 °F -8.9 °F 60% 30.36 in 10.0 mi West 5.8 mph - N/A   Clear
4:10 PM 1.8 °F -10.8 °F -9.4 °F 60% 30.37 in 10.0 mi West 6.9 mph - N/A   Clear
4:29 PM 1.2 °F -12.7 °F -9.4 °F 61% 30.37 in 10.0 mi West 8.1 mph - N/A   Clear
4:49 PM 0.3 °F -12.6 °F -10.3 °F 61% 30.37 in 10.0 mi WNW 6.9 mph - N/A   Clear
5:10 PM -0.8 °F -15.1 °F -10.7 °F 63% 30.37 in 10.0 mi West 8.1 mph - N/A   Clear
5:29 PM -2.0 °F -13.9 °F -11.2 °F 65% 30.37 in 10.0 mi West 5.8 mph - N/A   Clear
5:49 PM -4.5 °F -13.0 °F -13.0 °F 67% 30.37 in 10.0 mi West 3.5 mph - N/A   Clear
6:10 PM -9.0 °F -20.4 °F -16.2 °F 71% 30.37 in 10.0 mi WNW 4.6 mph - N/A   Clear
6:29 PM -8.9 °F -20.2 °F -15.3 °F 73% 30.37 in 10.0 mi West 4.6 mph - N/A   Clear
6:50 PM -11.9 °F -21.5 °F -18.0 °F 74% 30.37 in 10.0 mi WNW 3.5 mph - N/A   Clear
7:10 PM -9.4 °F -22.7 °F -15.3 °F 75% 30.37 in 10.0 mi WNW 5.8 mph - N/A   Clear
7:29 PM -9.0 °F -18.2 °F -15.2 °F 75% 30.36 in 10.0 mi West 3.5 mph - N/A   Clear
7:49 PM -9.2 °F -20.7 °F -15.3 °F 74% 30.36 in 10.0 mi West 4.6 mph - N/A   Clear
8:10 PM -12.6 °F -24.6 °F -18.0 °F 77% 30.36 in 10.0 mi West 4.6 mph - N/A   Clear
8:29 PM -15.9 °F - -21.1 °F 77% 30.36 in 10.0 mi Calm Calm - N/A   Clear
8:49 PM -13.0 °F - -17.5 °F 80% 30.36 in 10.0 mi Calm Calm - N/A   Clear
9:10 PM -12.3 °F - -16.4 °F 82% 30.36 in 10.0 mi Calm Calm - N/A   Clear
9:29 PM -16.4 °F - -21.5 °F 78% 30.34 in 10.0 mi Calm Calm - N/A   Clear
9:49 PM -15.3 °F - -19.5 °F 82% 30.34 in 10.0 mi Calm Calm - N/A   Clear
10:10 PM -18.0 °F - -23.4 °F 76% 30.34 in 10.0 mi Calm Calm - N/A   Clear
10:29 PM -19.3 °F - -24.3 °F 78% 30.33 in 10.0 mi Calm Calm - N/A   Clear
10:49 PM -18.0 °F - -22.2 °F 81% 30.33 in 10.0 mi Calm Calm - N/A   Clear
11:10 PM -18.8 °F - -24.0 °F 77% 30.33 in 10.0 mi Calm Calm - N/A   Clear
11:29 PM -17.9 °F - -22.0 °F 81% 30.33 in 10.0 mi Calm Calm - N/A   Clear
11:50 PM -19.1 °F - -24.0 °F 78% 30.32 in 10.0 mi Calm Calm - N/A   Clear